FW0386 Weather Reports


Display with metric or nautical units.
time (UTC)temp
F
wind
direction
speed
MPH
gust
MPH
rain 1hr
in
rain 24hr
in
rain mn
in
humidity
%
barometer
mb
20260508160020 63 287 0.0 6.0 0.00 0.00 0.00 57 1017.1
20260508154524 63 240 1.0 4.0 0.00 0.00 0.00 56 1017.1
20260508151600 63 278 1.0 8.0 0.00 0.00 0.00 58 1017.3
20260508150019 62 283 1.0 5.0 0.00 0.00 0.00 58 1017.3
20260508144543 62 41 0.0 4.0 0.00 0.00 0.00 60 1017.5
20260508143049 61 66 2.0 4.0 0.00 0.00 0.00 59 1017.5
20260508141532 61 263 2.0 7.0 0.00 0.00 0.00 58 1017.4
20260508140022 62 4 1.0 5.0 0.00 0.00 0.00 58 1017.4
20260508134546 62 287 2.0 5.0 0.00 0.00 0.00 59 1017.5
20260508133017 62 294 0.0 6.0 0.00 0.00 0.00 60 1017.4
20260508131524 61 260 1.0 5.0 0.00 0.00 0.00 60 1017.5
20260508130026 62 53 2.0 6.0 0.00 0.00 0.00 58 1017.6
20260508124600 63 349 2.0 7.0 0.00 0.00 0.00 58 1017.5
20260508123115 62 330 2.0 10.0 0.00 0.00 0.00 58 1017.4
20260508121525 62 284 2.0 7.0 0.00 0.00 0.00 57 1017.5
20260508120056 62 91 2.0 5.0 0.00 0.00 0.00 58 1017.5
20260508114529 61 48 1.0 5.0 0.00 0.00 0.00 58 1017.6
20260508113015 61 15 0.0 7.0 0.00 0.00 0.00 61 1017.5
20260508111553 60 310 0.0 6.0 0.00 0.00 0.00 63 1017.5
20260508110007 59 254 1.0 6.0 0.00 0.00 0.00 65 1017.7
20260508104558 59 338 0.0 4.0 0.00 0.00 0.00 65 1017.7
20260508103022 59 283 1.0 5.0 0.00 0.00 0.00 65 1017.7
20260508101502 59 283 0.0 4.0 0.00 0.00 0.00 65 1017.7
20260508100039 58 356 1.0 6.0 0.00 0.00 0.00 67 1017.7
20260508094507 57 345 2.0 6.0 0.00 0.00 0.00 69 1017.8
20260508093137 58 279 2.0 5.0 0.00 0.00 0.00 67 1017.9
20260508091542 56 275 1.0 5.0 0.00 0.00 0.00 69 1017.8
20260508090001 56 322 1.0 5.0 0.00 0.00 0.00 70 1017.9
20260508084543 57 344 1.0 4.0 0.00 0.00 0.00 69 1017.7
20260508083049 55 134 0.0 4.0 0.00 0.00 0.00 72 1017.7
20260508081550 56 211 0.0 4.0 0.00 0.00 0.00 73 1017.6
20260508074604 54 212 0.0 4.0 0.00 0.00 0.00 75 1017.6
20260508073017 54 276 1.0 3.0 0.00 0.00 0.00 76 1017.5
20260508071600 54 271 0.0 3.0 0.00 0.00 0.00 76 1017.4
20260508070030 53 39 1.0 4.0 0.00 0.00 0.00 76 1017.5
20260508064603 53 231 0.0 4.0 0.00 0.00 0.00 77 1017.4
20260508063128 52 288 0.0 5.0 0.00 0.00 0.00 77 1017.3
20260508061514 52 265 1.0 4.0 0.00 0.00 0.00 78 1017.2
20260508060155 52 23 1.0 4.0 0.00 0.00 0.00 79 1017.1
20260508054553 53 65 0.0 5.0 0.00 0.00 0.00 78 1016.9
20260508053115 51 15 0.0 1.0 0.00 0.00 0.00 84 1016.8
20260508051521 49 273 0.0 1.0 0.00 0.00 0.00 86 1016.8
20260508050050 48 283 0.0 3.0 0.00 0.00 0.00 87 1016.7
20260508044509 47 222 0.0 2.0 0.00 0.00 0.00 91 1016.7
20260508043049 45 275 0.0 0.0 0.00 0.00 0.00 92 1016.7
20260508041530 44 275 0.0 0.0 0.00 0.00 0.00 92 1016.6
20260508040026 44 275 0.0 1.0 0.00 0.00 0.00 92 1016.5
20260508034533 43 275 0.0 0.0 0.00 0.00 0.00 90 1016.5
20260508033012 44 275 0.0 0.0 0.00 0.00 0.00 90 1016.4
20260508031529 45 275 0.0 0.0 0.00 0.00 0.00 89 1016.1
20260508030034 46 275 0.0 1.0 0.00 0.00 0.00 89 1016.1
20260508024504 45 275 0.0 2.0 0.00 0.00 0.00 90 1016.2
20260508023021 45 280 0.0 1.0 0.00 0.00 0.00 88 1016.2
20260508021542 45 266 0.0 2.0 0.00 0.00 0.00 88 1016.0
20260508020015 46 237 0.0 1.0 0.00 0.00 0.00 87 1016.0
20260508014526 46 266 0.0 2.0 0.00 0.00 0.00 88 1016.0
20260508013052 45 278 0.0 1.0 0.00 0.00 0.00 88 1015.8
20260508011616 45 278 0.0 2.0 0.00 0.00 0.00 89 1015.7
20260508010043 44 278 0.0 1.0 0.00 0.00 0.00 89 1015.7
20260508004551 45 278 0.0 1.0 0.00 0.00 0.00 86 1015.8
20260508003004 46 278 0.0 2.0 0.00 0.00 0.00 86 1015.6
20260508001527 46 257 0.0 1.0 0.00 0.00 0.00 85 1015.6
20260508000004 47 257 0.0 0.0 0.00 0.00 0.00 83 1015.7
20260507234524 48 257 0.0 1.0 0.00 0.00 0.00 82 1015.7
20260507233038 48 255 0.0 1.0 0.00 0.00 0.00 82 1015.8
20260507231609 49 265 0.0 1.0 0.00 0.00 0.00 81 1015.8
20260507230104 49 264 0.0 1.0 0.00 0.00 0.00 80 1015.7
20260507224557 50 264 0.0 1.0 0.00 0.00 0.00 78 1015.7
20260507223035 51 264 0.0 1.0 0.00 0.00 0.00 76 1015.8
20260507221517 52 265 0.0 4.0 0.00 0.00 0.00 75 1015.6
20260507220034 53 260 0.0 7.0 0.00 0.00 0.00 74 1015.7
20260507214603 53 288 0.0 3.0 0.00 0.00 0.00 73 1015.5
20260507213023 53 244 1.0 4.0 0.00 0.00 0.00 73 1015.3
20260507211556 53 288 0.0 2.0 0.00 0.00 0.00 74 1015.2
20260507210008 54 252 0.0 3.0 0.00 0.00 0.00 73 1015.1
20260507204550 55 285 0.0 3.0 0.00 0.00 0.00 72 1015.1
20260507203055 55 296 1.0 7.0 0.00 0.00 0.00 71 1014.8
20260507201538 56 288 2.0 7.0 0.00 0.00 0.00 70 1014.5
20260507200006 56 276 1.0 5.0 0.00 0.00 0.00 69 1014.3
20260507193054 57 283 1.0 6.0 0.00 0.00 0.00 65 1013.9
20260507191516 58 311 2.0 7.0 0.00 0.00 0.00 64 1013.7
20260507190040 58 300 3.0 9.0 0.00 0.00 0.00 63 1013.4
20260507184503 59 271 3.0 6.0 0.00 0.00 0.00 62 1013.2
20260507183011 60 279 1.0 5.0 0.00 0.00 0.00 60 1013.3
20260507181524 60 226 0.0 7.0 0.00 0.00 0.00 59 1013.0
20260507180049 60 221 1.0 5.0 0.00 0.00 0.00 58 1012.7
20260507174604 61 271 0.0 3.0 0.00 0.00 0.00 57 1012.5
20260507173025 62 245 0.0 4.0 0.00 0.00 0.00 54 1012.3